Time,TemperatureF,DewpointF,PressureIn,WindDirection,WindDirectionDegrees,WindSpeedMPH,WindSpeedGustMPH,Humidity,HourlyPrecipIn,Conditions,Clouds,dailyrainin,SoftwareType,DateUTC
2013-03-25 11:33:00,23.0,21.0,-100.00,ENE,73,0.0,1.0,94,0.00,,,-99.99,,2013-03-25 15:33:00,
2013-03-25 11:43:00,23.0,23.0,-100.00,ENE,73,0.0,1.0,95,2.83,,,-99.99,,2013-03-25 15:43:00,
2013-03-25 11:53:00,24.0,23.0,-100.00,ENE,72,0.0,1.0,94,2.83,,,-99.99,,2013-03-25 15:53:00,
2013-03-25 12:12:00,24.0,23.0,-100.00,ENE,72,0.0,1.0,93,7.36,,,-99.99,,2013-03-25 16:12:00,
2013-03-25 12:23:00,25.0,25.0,-100.00,ENE,72,0.0,1.0,93,1.69,,,-99.99,,2013-03-25 16:23:00,
2013-03-25 12:33:00,26.0,25.0,-100.00,ENE,72,0.0,1.0,93,0.00,,,-99.99,,2013-03-25 16:33:00,
2013-03-25 12:43:00,26.0,25.0,-100.00,ENE,72,0.0,1.0,91,2.28,,,-99.99,,2013-03-25 16:43:00,
2013-03-25 12:52:00,25.0,23.0,-100.00,ENE,72,0.0,1.0,91,0.55,,,-99.99,,2013-03-25 16:52:00,
2013-03-25 13:03:00,26.0,25.0,-100.00,ENE,72,0.0,1.0,93,2.28,,,-99.99,,2013-03-25 17:03:00,
2013-03-25 13:13:00,26.0,25.0,-100.00,ENE,73,0.0,1.0,94,1.69,,,-99.99,,2013-03-25 17:13:00,
2013-03-25 13:23:00,26.0,25.0,-100.00,ENE,72,0.0,1.0,94,1.69,,,-99.99,,2013-03-25 17:23:00,
2013-03-25 13:33:00,26.0,25.0,-100.00,ENE,73,0.0,1.0,94,1.14,,,-99.99,,2013-03-25 17:33:00,
2013-03-25 13:43:00,25.0,25.0,-100.00,ENE,72,0.0,1.0,95,0.55,,,-99.99,,2013-03-25 17:43:00,
2013-03-25 13:52:00,26.0,25.0,-100.00,ENE,72,0.0,1.0,94,0.55,,,-99.99,,2013-03-25 17:52:00,
2013-03-25 14:03:00,26.0,25.0,-100.00,ENE,73,0.0,1.0,94,0.00,,,-99.99,,2013-03-25 18:03:00,
2013-03-25 14:13:00,26.0,25.0,-100.00,ENE,73,0.0,1.0,95,0.00,,,-99.99,,2013-03-25 18:13:00,
2013-03-25 14:23:00,26.0,25.0,-100.00,ENE,72,0.0,1.0,94,0.00,,,-99.99,,2013-03-25 18:23:00,
2013-03-25 14:33:00,26.0,25.0,-100.00,ENE,72,0.0,1.0,94,0.00,,,-99.99,,2013-03-25 18:33:00,
2013-03-25 14:43:00,26.0,25.0,-100.00,ENE,72,0.0,1.0,94,0.00,,,-99.99,,2013-03-25 18:43:00,
2013-03-25 14:52:00,26.0,25.0,-100.00,ENE,72,0.0,1.0,94,0.00,,,-99.99,,2013-03-25 18:52:00,
2013-03-25 15:03:00,26.0,25.0,-100.00,ENE,72,0.0,1.0,94,0.00,,,-99.99,,2013-03-25 19:03:00,
2013-03-25 15:33:00,26.0,25.0,-100.00,ENE,72,0.0,1.0,94,0.00,,,-99.99,,2013-03-25 19:33:00,
2013-03-25 15:43:00,26.0,25.0,-100.00,ENE,72,0.0,1.0,94,0.00,,,-99.99,,2013-03-25 19:43:00,
2013-03-25 18:13:00,26.0,25.0,-100.00,ENE,72,0.0,1.0,93,0.00,,,-99.99,,2013-03-25 22:13:00,
2013-03-25 18:23:00,26.0,25.0,-100.00,ENE,72,0.0,1.0,93,0.55,,,-99.99,,2013-03-25 22:23:00,
2013-03-25 18:33:00,26.0,25.0,-100.00,ENE,72,0.0,1.0,93,0.55,,,-99.99,,2013-03-25 22:33:00,
2013-03-25 18:42:00,26.0,25.0,-100.00,ENE,72,0.0,1.0,93,0.00,,,-99.99,,2013-03-25 22:42:00,
2013-03-25 18:52:00,26.0,25.0,-100.00,ENE,73,0.0,1.0,91,0.00,,,-99.99,,2013-03-25 22:52:00,
2013-03-25 19:03:00,26.0,25.0,-100.00,ENE,72,0.0,1.0,91,0.00,,,-99.99,,2013-03-25 23:03:00,
2013-03-25 19:12:00,27.0,27.0,-100.00,ENE,72,0.0,1.0,93,0.00,,,-99.99,,2013-03-25 23:12:00,
2013-03-25 19:23:00,27.0,25.0,-100.00,ENE,72,0.0,1.0,90,0.00,,,-99.99,,2013-03-25 23:23:00,
2013-03-25 19:32:00,27.0,25.0,-100.00,ENE,72,0.0,1.0,89,0.00,,,-99.99,,2013-03-25 23:32:00,
2013-03-25 19:43:00,27.0,25.0,-100.00,ENE,73,0.0,1.0,91,0.00,,,-99.99,,2013-03-25 23:43:00,
2013-03-25 19:52:00,27.0,27.0,-100.00,ENE,73,0.0,1.0,91,0.00,,,-99.99,,2013-03-25 23:52:00,
2013-03-25 20:02:00,26.0,25.0,-100.00,ENE,72,0.0,1.0,93,0.00,,,-99.99,,2013-03-26 00:02:00,
2013-03-25 20:12:00,26.0,25.0,-100.00,ENE,73,0.0,1.0,94,0.00,,,-99.99,,2013-03-26 00:12:00,
2013-03-25 20:32:00,26.0,25.0,-100.00,ENE,73,0.0,1.0,94,0.55,,,-99.99,,2013-03-26 00:32:00,
2013-03-25 20:42:00,26.0,25.0,-100.00,ENE,72,0.0,1.0,95,0.55,,,-99.99,,2013-03-26 00:42:00,
2013-03-25 21:02:00,25.0,25.0,-100.00,ENE,72,0.0,1.0,97,0.55,,,-99.99,,2013-03-26 01:02:00,
2013-03-25 21:42:00,25.0,25.0,-100.00,ENE,73,0.0,1.0,100,1.14,,,-99.99,,2013-03-26 01:42:00,